sat.trackr.live / text

‹ back to catalog

STARLINK-5408

NORAD 54810 · 2022-175BE

PAYLOAD ACTIVE UNKNOWN

§ Identity

Operator
Country
US
Launch date
2022-12-17
Launch site
AFETR
Launch vehicle
Mass (kg)
RCS (m²)

Purposes: comms

External: N2YO · Heavens-Above · Gunter

§ Orbital elements

Epoch: 2026-05-24T22:30:53.987904Z

Period
95.44 min
Inclination
53.2135°
Eccentricity
0.0001707
Mean motion
15.08822412 rev/d
Perigee alt
538.6 km
Apogee alt
541.0 km
Semi-major
6,917.9 km
B*
2.6097e-4
RAAN
41.5979°
Arg perigee
91.7791°
Mean anomaly
268.3397°
Rev number
19,171

§ Raw data

STARLINK-54081 54810U 22175BE  26144.93812486  .00003866  00000+0  26097-3 0  99922 54810  53.2135  41.5979 0001707  91.7791 268.3397 15.08822412191713

JSON: /api/v1/satellites/54810 · /tle

For live sub-satellite position, see the globe view (requires WebGL).

§ Visibility from observer

Set your observer location to see the next 7 days of passes ≥ 10°. The values pass through the URL so the page stays shareable.

No JS? Fill the form by hand. The geolocation button needs JavaScript.